Location: Unspecified
(34.4950°S, 58.5160°W)
Time: 03:38:43
(UTC+00:00)

DELTA 2 R/B (1) - Pass Details

Date: 04 December 2021
Orbit: 791 x 802 km, 39.6° (Epoch: 23 January)

Event Time Altitude Azimuth Distance (km) Brightness Sun altitude
Rises 23:25:00 0° 252° (WSW) 3,324 8.7 -6.2°
Reaches altitude 10° 23:27:32 10° 248° (WSW) 2,392 7.7 -6.6°
Maximum altitude 23:33:08 60° 168° (SSE) 924 4.1 -7.6°
Drops below altitude 10° 23:38:41 10° 88° (E) 2,380 5.5 -8.5°
Enters shadow 23:39:35 - 86° (E) 2,707 5.8 -8.7°
